Terminal Aerodrome Forecast
Issued by NWS Wilmington, OH

Current Version | Previous Version | Graphics & Text | Print | Product List | Glossary On
Versions: 1 2 3 4 5 6 7 8 9 10 11 12 13 14 15 16 17
000
FTUS41 KILN 221000 AAA
TAFDAY
TAF AMD
KDAY 221045Z 2211/2306 28010KT 5SM BR BKN008 OVC020
     FM221200 29012KT 5SM BR BKN012 OVC035
     FM221400 31016KT P6SM SCT020
     FM221600 31017G25KT P6SM FEW035
     FM230000 33011KT P6SM SKC=

USA.gov is the U.S. government's official web portal to all federal, state and local government web resources and services.